Weather in Urlyadinskiy

Russia / Chelyabinsk Oblast     54°01′35″N   59°25′13″E
temp.,
°C
wind,
m/s
gust,
m/s
humid.,
%
clouds,
%
prec.,
mm/h
press.,
hPa
HPBL,
m
26 february, fri
fri2623:00−26wsw119421 0.0 103120
02:00−27wnw11980 0.0 103020
05:00−27nw11980 0.0 103019
08:00−29w11980 0.0 102919
11:00−22sw12860 0.0 1028116
14:00−20ssw238540 0.0 1027250
17:00−21ssw249029 0.0 1026143
20:00−25ssw339911 0.0 102630
27 february, sat
sat2723:00−26sw3310038 0.0 102634
02:00−27ssw3310099 0.0 102433
05:00−27s2310099 0.1 102237
08:00−24sse2699100 0.1 1018249
11:00−21sse4698100 0.7 1015373
14:00−17se4895100 1.3 1012541
17:00−11e2595100 2.1 1009356
20:00−13e1397100 0.7 1007117
28 february, sun
sun2823:00−14nne1297100 1.1 100624
02:00−13nne1296100 0.1 100529
05:00−13nne1196100 0.3 100423
08:00−15nne119794 0.0 100320
11:00−10ne129395 0.1 1003133
14:00−8ne229299 0.2 1002233
17:00−7ene2395100 0.5 1003237
20:00−9nne3496100 0.3 100485
1 march, mon
mon123:00−10nne489699 0.4 1006209
02:00−13nne3696100 0.1 1008172
05:00−15nne359697 0.2 1010137
08:00−17nne359784 0.1 1013127
11:00−15ne239290 0.3 1015237
14:00−13ene2289100 0.1 1016310
17:00−13e2393100 0.3 1018238
20:00−16ene129798 0.1 102020
2 march, tue
tue223:00−18nne119898 0.2 102220
02:00−20wsw1110081 0.0 102220
05:00−21wsw2210077 0.1 102120
08:00−21wsw239920 0.0 102121
11:00−16wsw349110 0.0 1019133
14:00−13sw35899 0.0 1016202
17:00−11sw599044 0.0 1015242
20:00−12sw468997 0.0 1014100